Wrangell, AK

2:36 PM AKDT on July 25, 2016 (GMT -0800)
Wrangell

Weather History for PAWG - July, 2013

Change the Weather History Date:

Saturday, July 27, 2013

  Actual Average Record
Temperature  
Mean Temperature 56 °F -  
Max Temperature 60 °F 64 °F 78 °F (1982)
Min Temperature 53 °F 49 °F 35 °F (1956)
Degree Days  
Heating Degree Days 8    
Growing Degree Days 6 (Base 50)    
Moisture  
Dew Point 51 °F    
Average Humidity 82    
Maximum Humidity 88    
Minimum Humidity 72    
Precipitation  
Precipitation 0.00 in - - ()
Sea Level Pressure  
Sea Level Pressure 30.27 in    
Wind  
Wind Speed 2 mph (NW)    
Max Wind Speed 6 mph    
Max Gust Speed -    
Visibility 10 miles    
Events      
Averages and records for this station are not official NWS values.
T = Trace of Precipitation, MM = Missing Value Source: NWS Daily Summary

Daily Weather History Graph

Daily Weather History Graph

Search for Another Location

Airport or City:

Trip Planner

Search our weather history database for the weather conditions in past years. The results will help you decide how hot, cold, wet, or windy it might be!

Date:

Astronomy

Jul. 27, 2013 Rise Set
Actual Time 4:42 AM AKDT 9:08 PM AKDT
Civil Twilight 3:50 AM AKDT 9:59 PM AKDT
Nautical Twilight 2:27 AM AKDT 11:21 PM AKDT
Astronomical Twilight Sun does not set Sun does not set
Moon 10:33 PM AKDT (7/27) 11:51 AM AKDT (7/27)
Length of Visible Light 18h 08m
Length of Day
16h 26m
Waning Gibbous, 69% of the Moon is Illuminated
Jul 27
Waning Gibbous
Jul 29
Last Quarter
Aug 6
New
Aug 14
First Quarter
Aug 20
Full

Hourly Weather History & Observations

Time (AKDT) Temp. Dew Point Humidity Pressure Visibility Wind Dir Wind Speed Gust Speed Precip Events Conditions
12:16 AM 55.4 °F 51.8 °F 88% 30.31 in 10.0 mi Calm Calm - N/A   Overcast
12:36 AM 55.4 °F 51.8 °F 88% 30.31 in 10.0 mi Calm Calm - N/A   Overcast
12:56 AM 55.4 °F 51.8 °F 88% 30.31 in 10.0 mi Calm Calm - N/A   Overcast
1:16 AM 55.4 °F 51.8 °F 88% 30.31 in 10.0 mi Calm Calm - N/A   Overcast
1:36 AM 55.4 °F 51.8 °F 88% 30.31 in 10.0 mi Calm Calm - N/A   Overcast
1:56 AM 53.6 °F 50.0 °F 88% 30.31 in 10.0 mi Calm Calm - N/A   Overcast
2:16 AM 53.6 °F 50.0 °F 88% 30.31 in 10.0 mi Calm Calm - N/A   Overcast
2:36 AM 53.6 °F 50.0 °F 88% 30.31 in 10.0 mi Calm Calm - N/A   Overcast
2:56 AM 53.6 °F 50.0 °F 88% 30.31 in 10.0 mi Calm Calm - N/A   Overcast
3:16 AM 53.6 °F 50.0 °F 88% 30.31 in 10.0 mi Calm Calm - N/A   Overcast
3:36 AM 53.6 °F 48.2 °F 82% 30.31 in 10.0 mi West 3.5 mph - N/A   Mostly Cloudy
3:56 AM 53.6 °F 48.2 °F 82% 30.31 in 10.0 mi Calm Calm - N/A   Overcast
4:16 AM 53.6 °F 48.2 °F 82% 30.31 in 10.0 mi Calm Calm - N/A   Mostly Cloudy
4:36 AM 53.6 °F 48.2 °F 82% 30.31 in 10.0 mi WSW 4.6 mph - N/A   Overcast
4:56 AM 53.6 °F 48.2 °F 82% 30.31 in 10.0 mi WSW 4.6 mph - N/A   Overcast
5:16 AM 53.6 °F 48.2 °F 82% 30.31 in 10.0 mi Calm Calm - N/A   Overcast
5:36 AM 53.6 °F 48.2 °F 82% 30.31 in 10.0 mi Calm Calm - N/A   Overcast
5:56 AM 53.6 °F 48.2 °F 82% 30.31 in 10.0 mi Calm Calm - N/A   Overcast
6:16 AM 53.6 °F 48.2 °F 82% 30.31 in 10.0 mi SW 3.5 mph - N/A   Overcast
6:36 AM 53.6 °F 48.2 °F 82% 30.31 in 10.0 mi West 3.5 mph - N/A   Overcast
6:56 AM 53.6 °F 50.0 °F 88% 30.31 in 10.0 mi Calm Calm - N/A   Overcast
7:16 AM 53.6 °F 48.2 °F 82% 30.31 in 10.0 mi Calm Calm - N/A   Overcast
7:36 AM 53.6 °F 48.2 °F 82% 30.31 in 10.0 mi NW 4.6 mph - N/A   Overcast
7:56 AM 53.6 °F 48.2 °F 82% 30.31 in 10.0 mi WNW 3.5 mph - N/A   Overcast
8:16 AM 53.6 °F 48.2 °F 82% 30.31 in 10.0 mi West 3.5 mph - N/A   Overcast
8:36 AM 53.6 °F 50.0 °F 88% 30.30 in 10.0 mi WNW 5.8 mph - N/A   Overcast
8:56 AM 53.6 °F 50.0 °F 88% 30.30 in 10.0 mi West 5.8 mph - N/A   Overcast
9:16 AM 55.4 °F 48.2 °F 77% 30.30 in 10.0 mi West 4.6 mph - N/A   Overcast
9:36 AM 55.4 °F 50.0 °F 82% 30.30 in 10.0 mi WNW 4.6 mph - N/A   Overcast
9:56 AM 55.4 °F 50.0 °F 82% 30.30 in 10.0 mi NNW 5.8 mph - N/A   Overcast
10:16 AM 55.4 °F 50.0 °F 82% 30.30 in 10.0 mi NNW 5.8 mph - N/A   Overcast
10:36 AM 55.4 °F 51.8 °F 88% 30.29 in 10.0 mi NW 4.6 mph - N/A   Overcast
10:56 AM 55.4 °F 50.0 °F 82% 30.29 in 10.0 mi NW 4.6 mph - N/A   Mostly Cloudy
11:16 AM 57.2 °F 51.8 °F 82% 30.29 in 10.0 mi NW 4.6 mph - N/A   Mostly Cloudy
11:36 AM 57.2 °F 51.8 °F 82% 30.29 in 10.0 mi West 3.5 mph - N/A   Mostly Cloudy
11:56 AM 57.2 °F 51.8 °F 82% 30.29 in 10.0 mi NW 4.6 mph - N/A   Mostly Cloudy
12:16 PM 57.2 °F 51.8 °F 82% 30.29 in 10.0 mi NW 5.8 mph - N/A   Mostly Cloudy
12:36 PM 59.0 °F 51.8 °F 77% 30.28 in 10.0 mi NW 5.8 mph - N/A   Mostly Cloudy
12:56 PM 60.8 °F 53.6 °F 77% 30.28 in 10.0 mi NW 3.5 mph - N/A   Overcast
1:16 PM 59.0 °F 51.8 °F 77% 30.28 in 10.0 mi NNW 4.6 mph - N/A   Overcast
1:36 PM 59.0 °F 51.8 °F 77% 30.28 in 10.0 mi NNW 3.5 mph - N/A   Overcast
1:56 PM 60.8 °F 51.8 °F 72% 30.28 in 10.0 mi NNW 3.5 mph - N/A   Overcast
2:16 PM 60.8 °F 51.8 °F 72% 30.27 in 10.0 mi NNW 3.5 mph - N/A   Overcast
2:36 PM 60.8 °F 51.8 °F 72% 30.27 in 10.0 mi NNW 3.5 mph - N/A   Overcast
2:56 PM 59.0 °F 51.8 °F 77% 30.26 in 10.0 mi NW 4.6 mph - N/A   Overcast
3:16 PM 59.0 °F 51.8 °F 77% 30.26 in 10.0 mi NW 3.5 mph - N/A   Overcast
3:36 PM 60.8 °F 51.8 °F 72% 30.26 in 10.0 mi NW 3.5 mph - N/A   Overcast
3:56 PM 60.8 °F 51.8 °F 72% 30.25 in 10.0 mi Calm Calm - N/A   Overcast
4:16 PM 59.0 °F 51.8 °F 77% 30.25 in 10.0 mi Calm Calm - N/A   Overcast
4:36 PM 59.0 °F 51.8 °F 77% 30.24 in 10.0 mi Calm Calm - N/A   Overcast
4:56 PM 59.0 °F 51.8 °F 77% 30.24 in 10.0 mi NNW 3.5 mph - N/A   Overcast
5:16 PM 59.0 °F 51.8 °F 77% 30.23 in 10.0 mi NNW 3.5 mph - N/A   Overcast
5:36 PM 59.0 °F 51.8 °F 77% 30.23 in 10.0 mi NNW 3.5 mph - N/A   Overcast
5:56 PM 60.8 °F 53.6 °F 77% 30.23 in 10.0 mi Calm Calm - N/A   Overcast
6:16 PM 60.8 °F 53.6 °F 77% 30.23 in 10.0 mi Calm Calm - N/A   Overcast
6:36 PM 59.0 °F 51.8 °F 77% 30.22 in 10.0 mi Calm Calm - N/A   Overcast
6:56 PM 57.2 °F 51.8 °F 82% 30.22 in 10.0 mi Calm Calm - N/A   Overcast
7:16 PM 55.4 °F 51.8 °F 88% 30.22 in 10.0 mi Calm Calm - N/A   Overcast
7:36 PM 55.4 °F 51.8 °F 88% 30.22 in 10.0 mi Calm Calm - N/A   Overcast
7:56 PM 59.0 °F 51.8 °F 77% 30.21 in 10.0 mi Calm Calm - N/A   Overcast
8:16 PM 55.4 °F 51.8 °F 88% 30.21 in 10.0 mi Calm Calm - N/A   Overcast
8:36 PM 57.2 °F 51.8 °F 82% 30.21 in 10.0 mi Calm Calm - N/A   Overcast
8:56 PM 57.2 °F 51.8 °F 82% 30.21 in 10.0 mi Calm Calm - N/A   Overcast
9:16 PM 57.2 °F 51.8 °F 82% 30.21 in 10.0 mi Calm Calm - N/A   Overcast
9:36 PM 57.2 °F 51.8 °F 82% 30.21 in 10.0 mi SSE 3.5 mph - N/A   Overcast
9:56 PM 57.2 °F 51.8 °F 82% 30.21 in 10.0 mi Calm Calm - N/A   Overcast
10:16 PM 57.2 °F 51.8 °F 82% 30.21 in 10.0 mi Calm Calm - N/A   Overcast
10:36 PM 57.2 °F 51.8 °F 82% 30.21 in 10.0 mi Calm Calm - N/A   Overcast
10:56 PM 57.2 °F 51.8 °F 82% 30.21 in 10.0 mi Calm Calm - N/A   Overcast
11:16 PM 55.4 °F 50.0 °F 82% 30.21 in 10.0 mi Calm Calm - N/A   Overcast
11:36 PM 55.4 °F 50.0 °F 82% 30.21 in 10.0 mi Calm Calm - N/A   Overcast
11:56 PM 55.4 °F 51.8 °F 88% 30.21 in 10.0 mi Calm Calm - N/A   Overcast